Location: Ostrava
(49.8330°N, 18.2830°E)
Time: 22:52:28
(UTC+02:00)

Daily predictions for brighter satellites

Satellite Brightness Start Highest point End
(mag) Time Altitude Azimuth Time Altitude Azimuth Time Altitude Azimuth
Cosmos 2061 Rocket 4.2 21:30:03 10° N 21:36:28 88° E 21:42:53 10° S
NOAA 11 4.4 21:31:54 10° SSE 21:37:20 79° WSW 21:42:49 10° NNW
EO 1 Delta rocket 4.2 21:34:54 10° SSE 21:39:23 49° ENE 21:43:57 10° N
Cosmos 468 Rocket 4.0 21:34:15 10° NNW 21:39:26 86° ENE 21:44:34 10° SSE
Cosmos 1515 Rocket 4.4 21:36:12 10° N 21:40:15 36° ENE 21:44:16 10° SE
Helios 1B rocket 3.4 21:36:19 10° N 21:40:22 52° WNW 21:44:24 10° SSW
Cosmos 2173 Rocket 4.2 21:34:22 10° N 21:40:32 81° W 21:46:45 10° S
Cosmos 1151 Rocket 4.2 21:37:59 10° N 21:41:54 31° ENE 21:45:48 10° SE
USA 245 3.4 21:38:47 10° SSE 21:42:21 76° ENE 21:46:53 10° NNW
KORONAS-FOTON 3.8 21:39:02 10° S 21:42:47 64° E 21:46:33 10° NNE
Cosmos 1850 Rocket 4.2 21:37:59 10° SSW 21:43:10 82° WNW 21:48:25 10° NNE
YAOGAN 11 4.2 21:39:11 10° SSE 21:43:41 81° ENE 21:48:17 10° NNW
Cosmos 1242 Rocket 3.5 21:41:30 10° NNW 21:45:06 49° W 21:48:41 10° S
Cosmos 2123 Rocket 4.3 21:39:46 10° SSE 21:45:39 48° E 21:51:35 10° NNE
Cosmos 2228 Rocket 3.5 21:42:33 10° N 21:47:05 53° ENE 21:51:33 10° SSE
Cosmos 2084 3.1 21:44:15 10° SW 21:48:11 73° SE 21:51:59 10° NE
ERS-1 Rocket 3.6 21:44:14 10° S 21:49:10 55° W 21:54:09 10° NNW
H-2A R/B 3.4 21:46:05 10° ESE 21:49:40 26° ENE 21:53:12 10° N
Cosmos 1743 Rocket 4.3 21:45:46 10° SSE 21:49:41 34° E 21:53:37 10° NNE
Abrixas rocket 2.8 21:49:21 10° W 21:52:25 40° SSW 21:55:29 10° SE
Terra 2.7 21:48:55 10° SE 21:53:17 38° ENE 21:57:41 10° N
SL-08 RB Rocket 3.8 21:50:15 10° SSE 21:54:49 88° ENE 21:59:29 10° NNW
Meteor 2-10 4.3 21:50:38 10° N 21:56:13 72° ENE 22:01:55 10° SSE
Cosmos 2297 Rocket 3.7 21:51:26 10° WSW 21:56:47 42° NW 22:02:10 10° NNE
Cosmos 332 Rocket 3.9 21:52:00 10° NNW 21:56:55 81° WSW 22:01:50 10° SSE
CZ-3B DEB 4.4 21:47:59 10° W 21:58:32 72° N 22:11:41 10° ENE
Lacrosse 4 Rocket 4.3 21:58:26 10° W 22:02:00 25° NW 22:05:40 10° NNE
H-2A R/B 2.2 21:57:10 10° SSE 22:02:31 83° ENE 22:08:00 10° NNW
Cosmos 1725 Rocket 4.0 21:57:24 10° N 22:03:43 81° E 22:09:56 10° SSE
Cosmos 1802 Rocket 4.4 21:58:15 10° NNW 22:04:19 64° W 22:10:22 10° S
Cosmos 2263 Rocket 3.1 22:01:21 10° SSE 22:05:58 28° ESE 22:10:38 10° NE
Cosmos 540 Rocket 4.4 22:04:40 10° NNW 22:09:32 39° ENE 22:14:17 10° SE
Meteor 2-2 Rocket 4.4 22:03:48 10° NNW 22:09:35 81° W 22:15:27 10° S
ATLAS 5 CENTAUR R/B 2.3 22:05:43 10° SW 22:10:29 68° NW 22:15:46 10° NE
Cosmos 220 Rocket 4.1 22:14:42 10° S 22:19:01 57° ESE 22:23:20 10° NNE
Cosmos 2058 3.5 22:20:05 12° SSE 22:23:41 42° E 22:27:41 10° NNE
Cosmos 1626 2.8 22:26:07 15° SSE 22:28:51 37° E 22:32:19 10° NNE
CZ-4C R/B 4.0 22:27:44 10° ESE 22:29:18 11° ESE 22:31:00 10° E
RESURS DK-1 3.8 22:25:40 10° NW 22:29:20 30° WSW 22:32:59 10° S
Cosmos 1726 3.4 22:26:04 10° NNW 22:29:28 36° W 22:32:50 10° SSW
Cosmos 1300 3.6 22:27:53 10° NNW 22:31:35 45° W 22:35:14 10° SSW
SS 1 4.4 22:33:44 10° NW 22:36:38 87° SW 22:38:41 19° SE
SL-14 R/B 3.6 22:32:47 10° SSW 22:36:45 69° WNW 22:40:40 10° N
DMSP B5D2-2 4.1 22:31:51 10° NNE 22:37:07 72° ESE 22:42:18 10° S
deb Chang Zheng 4 4.3 22:33:03 10° NNE 22:37:08 37° E 22:40:12 16° SSE
SL-19 R/B 4.5 22:35:26 10° NNE 22:40:36 49° ESE 22:45:20 13° S
Cosmos 1943 3.6 22:39:15 10° NW 22:44:48 58° WSW 22:49:30 14° S
Cosmos 1328 4.4 22:41:35 10° SSW 22:45:34 57° WNW 22:49:34 10° N
Cosmos 371 Rocket 4.4 22:42:24 10° NW 22:46:48 37° WSW 22:51:07 10° S
Cosmos 2151 3.0 22:44:44 11° S 22:48:48 86° ESE 22:53:10 10° N
Cosmos 841 Rocket 3.9 22:44:05 10° NNW 22:49:15 57° WSW 22:53:31 15° S
Cosmos 1486 Rocket 4.0 22:45:06 10° SSW 22:50:22 84° ESE 22:55:44 10° NNE
USA 234 3.2 22:44:08 10° ENE 22:50:39 67° SE 22:57:10 10° SW
Cosmos 1763 Rocket 4.3 22:46:12 10° NW 22:51:03 43° WSW 22:55:21 12° S
ERBS 4.1 22:49:07 10° W 22:51:43 21° SW 22:53:20 15° SSW
Cosmos 1500 Rocket 3.8 22:49:57 10° SSW 22:54:24 72° WNW 22:58:53 10° N
Lacrosse 5 3.5 22:50:39 10° WNW 22:54:29 22° SW 22:57:45 12° S
Cosmos 2233 Rocket 4.2 22:49:51 10° NNW 22:56:03 69° W 23:01:37 13° S
Cosmos 1356 3.6 22:56:29 13° SSW 22:59:34 73° WNW 23:03:04 10° N
CARTOSAT-1 4.2 23:00:55 15° S 23:04:22 49° W 23:08:34 10° NNW
PSLV R/B 3.0 23:02:57 26° S 23:04:24 73° WSW 23:07:16 10° NNW
Cosmos 1455 2.2 23:01:13 10° NNW 23:05:07 82° W 23:07:35 21° S
Tiangong 1 3.1 23:08:14 10° SW 23:08:51 12° SW 23:08:51 12° SW
CZ-2C R/B 4.0 23:06:40 10° NE 23:10:56 24° E 23:13:32 17° SE
Cosmos 1869 3.4 23:09:25 10° N 23:13:21 63° ENE 23:15:34 24° SSE
Cosmos 1805 Rocket 3.6 23:10:45 21° S 23:13:30 60° E 23:17:47 10° NNE
Cosmos 1633 Rocket 3.8 23:16:39 22° SE 23:18:52 39° E 23:22:56 10° NNE
H-2A R/B 3.0 23:22:31 16° SSW 23:25:32 38° W 23:29:32 10° NNW
CZ-4C R/B 3.6 23:23:35 23° S 23:26:11 79° WSW 23:30:39 10° NNW
Meteor 2-10 Rocket 4.4 23:21:28 10° N 23:26:33 43° ENE 23:30:13 18° SE
Cosmos 1400 Rocket 4.2 23:27:01 20° SE 23:28:38 26° E 23:32:07 10° NE
Cosmos 292 Rocket 4.2 23:24:17 10° NNW 23:28:58 53° ENE 23:32:05 20° SE
ARGOS Delta rocket 4.4 23:24:31 10° NNE 23:29:46 52° E 23:32:45 23° SSE
Cosmos 2084 Rocket 3.1 23:26:23 10° NW 23:30:13 83° NE 23:32:23 25° SE
CZ-4 R/B 3.9 23:25:30 10° NNE 23:30:25 79° WNW 23:34:17 16° SSW
Terra 3.2 23:27:21 12° SSW 23:31:05 31° W 23:35:20 10° NNW
Cosmos 1513 Rocket 4.5 23:25:58 10° N 23:32:15 89° W 23:36:30 21° S
Cosmos 2278 Rocket 4.1 23:32:52 12° ESE 23:34:49 14° E 23:37:33 10° ENE
Cosmos 1503 Rocket 4.1 23:31:25 11° SSW 23:36:24 77° WNW 23:41:37 10° NNE
H-2A R/B 4.4 23:39:12 10° SW 23:42:37 17° W 23:46:05 10° NW
SWAS 4.4 23:40:47 21° SSW 23:43:35 73° ESE 23:47:54 10° NE
Cosmos 2242 Rocket 3.7 23:39:43 10° N 23:44:20 73° E 23:46:48 27° SSE
CZ-4B R/B 3.8 23:42:09 10° NNE 23:47:27 72° WNW 23:51:40 16° SSW
Cosmos 2034 Rocket 4.1 23:41:59 10° NNW 23:48:22 80° W 23:52:35 22° S
Cosmos 2263 Rocket 2.8 23:44:06 10° SW 23:49:35 56° NW 23:55:07 10° NNE
Cosmos 1470 Rocket 4.2 23:47:38 26° SE 23:49:36 42° E 23:53:49 10° NNE
Cosmos 540 Rocket 4.5 23:46:26 10° NW 23:51:06 35° WSW 23:54:07 19° SSW
COSMOS 2406 3.2 23:47:29 10° NNW 23:53:12 84° WSW 23:56:41 24° SSE
